Time,TemperatureF,DewpointF,PressureIn,WindDirection,WindDirectionDegrees,WindSpeedMPH,WindSpeedGustMPH,Humidity,HourlyPrecipIn,Conditions,Clouds,dailyrainin,SolarRadiationWatts/m^2,SoftwareType,DateUTC
2013-08-03 00:02:00,57.0,46.0,-100.00,West,278,0.0,2.0,67,0.00,,,0.00,0.000000,,2013-08-03 07:02:00,
2013-08-03 00:12:00,57.0,46.0,-100.00,West,278,0.0,2.0,67,0.00,,,0.00,0.000000,,2013-08-03 07:12:00,
2013-08-03 00:43:00,57.0,47.0,-100.00,NW,326,0.0,2.0,68,0.00,,,0.00,0.000000,,2013-08-03 07:43:00,
2013-08-03 01:02:00,57.0,47.0,-100.00,NW,326,0.0,2.0,68,0.00,,,0.00,0.000000,,2013-08-03 08:02:00,
2013-08-03 01:11:00,57.0,47.0,-100.00,NW,326,0.0,2.0,68,0.00,,,0.00,0.000000,,2013-08-03 08:11:00,
2013-08-03 01:43:00,56.0,47.0,-100.00,NW,319,0.0,2.0,71,-99.99,,,0.00,0.000000,,2013-08-03 08:43:00,
2013-08-03 01:52:00,56.0,47.0,-100.00,NW,319,0.0,2.0,71,-99.99,,,0.00,0.000000,,2013-08-03 08:52:00,
2013-08-03 02:02:00,56.0,47.0,-100.00,NW,319,0.0,2.0,71,-99.99,,,0.00,0.000000,,2013-08-03 09:02:00,
2013-08-03 02:12:00,56.0,47.0,-100.00,NW,319,0.0,2.0,71,-99.99,,,0.00,0.000000,,2013-08-03 09:12:00,
2013-08-03 02:43:00,56.0,46.0,-100.00,NNW,335,0.0,2.0,70,0.00,,,0.00,0.000000,,2013-08-03 09:43:00,
2013-08-03 02:53:00,56.0,46.0,-100.00,NNW,335,0.0,2.0,70,0.00,,,0.00,0.000000,,2013-08-03 09:53:00,
2013-08-03 03:02:00,56.0,46.0,-100.00,NNW,335,0.0,2.0,70,0.00,,,0.00,0.000000,,2013-08-03 10:02:00,
2013-08-03 03:12:00,56.0,46.0,-100.00,NNW,335,0.0,2.0,70,0.00,,,0.00,0.000000,,2013-08-03 10:12:00,
2013-08-03 03:43:00,55.0,46.0,-100.00,NW,318,0.0,2.0,71,0.00,,,0.00,0.000000,,2013-08-03 10:43:00,
2013-08-03 03:53:00,55.0,46.0,-100.00,NW,318,0.0,2.0,71,0.00,,,0.00,0.000000,,2013-08-03 10:53:00,
2013-08-03 04:02:00,55.0,46.0,-100.00,NW,318,0.0,2.0,71,0.00,,,0.00,0.000000,,2013-08-03 11:02:00,
2013-08-03 04:11:00,55.0,46.0,-100.00,NW,318,0.0,2.0,71,0.00,,,0.00,0.000000,,2013-08-03 11:11:00,
2013-08-03 04:43:00,56.0,45.0,-100.00,NW,309,0.0,2.0,67,0.00,,,0.00,0.000000,,2013-08-03 11:43:00,
2013-08-03 04:53:00,56.0,45.0,-100.00,NW,309,0.0,2.0,67,0.00,,,0.00,0.000000,,2013-08-03 11:53:00,
2013-08-03 05:02:00,56.0,45.0,-100.00,NW,309,0.0,2.0,67,0.00,,,0.00,0.000000,,2013-08-03 12:02:00,
2013-08-03 05:12:00,56.0,45.0,-100.00,NW,309,0.0,2.0,67,0.00,,,0.00,0.000000,,2013-08-03 12:12:00,
2013-08-03 05:43:00,53.0,46.0,-100.00,North,355,1.0,2.0,78,-99.99,,,0.00,0.000000,,2013-08-03 12:43:00,
2013-08-03 05:52:00,53.0,46.0,-100.00,North,355,1.0,2.0,78,-99.99,,,0.00,0.000000,,2013-08-03 12:52:00,
2013-08-03 06:02:00,53.0,46.0,-100.00,North,355,1.0,2.0,78,-99.99,,,0.00,0.000000,,2013-08-03 13:02:00,
2013-08-03 06:12:00,53.0,46.0,-100.00,North,355,1.0,2.0,78,-99.99,,,0.00,0.000000,,2013-08-03 13:12:00,
2013-08-03 06:43:00,52.0,45.0,-100.00,NNW,328,0.0,2.0,76,0.00,,,0.00,4.000000,,2013-08-03 13:43:00,
2013-08-03 06:52:00,52.0,45.0,-100.00,NNW,328,0.0,2.0,76,0.00,,,0.00,4.000000,,2013-08-03 13:52:00,
2013-08-03 07:02:00,52.0,45.0,-100.00,NNW,328,0.0,2.0,76,0.00,,,0.00,4.000000,,2013-08-03 14:02:00,
2013-08-03 07:12:00,52.0,45.0,-100.00,NNW,328,0.0,2.0,76,0.00,,,0.00,4.000000,,2013-08-03 14:12:00,
2013-08-03 07:43:00,54.0,47.0,-100.00,North,6,0.0,2.0,78,0.00,,,0.00,23.000000,,2013-08-03 14:43:00,
2013-08-03 07:52:00,54.0,47.0,-100.00,North,6,0.0,2.0,78,0.00,,,0.00,23.000000,,2013-08-03 14:52:00,
2013-08-03 08:02:00,54.0,47.0,-100.00,North,6,0.0,2.0,78,0.00,,,0.00,23.000000,,2013-08-03 15:02:00,
2013-08-03 08:12:00,54.0,47.0,-100.00,North,6,0.0,2.0,78,0.00,,,0.00,23.000000,,2013-08-03 15:12:00,
2013-08-03 08:43:00,59.0,48.0,-100.00,ESE,104,1.0,4.0,67,0.00,,,0.00,135.000000,,2013-08-03 15:43:00,
2013-08-03 08:53:00,59.0,48.0,-100.00,ESE,104,1.0,4.0,67,0.00,,,0.00,135.000000,,2013-08-03 15:53:00,
2013-08-03 09:02:00,59.0,48.0,-100.00,ESE,104,1.0,4.0,67,0.00,,,0.00,135.000000,,2013-08-03 16:02:00,
2013-08-03 09:12:00,59.0,48.0,-100.00,ESE,104,1.0,4.0,67,0.00,,,0.00,135.000000,,2013-08-03 16:12:00,
2013-08-03 09:43:00,63.0,48.0,-100.00,ENE,62,3.0,6.0,58,0.00,,,0.00,455.000000,,2013-08-03 16:43:00,
2013-08-03 09:53:00,63.0,48.0,-100.00,ENE,62,3.0,6.0,58,0.00,,,0.00,455.000000,,2013-08-03 16:53:00,
2013-08-03 10:02:00,63.0,48.0,-100.00,ENE,62,3.0,6.0,58,0.00,,,0.00,455.000000,,2013-08-03 17:02:00,
2013-08-03 10:12:00,63.0,48.0,-100.00,ENE,62,3.0,6.0,58,0.00,,,0.00,455.000000,,2013-08-03 17:12:00,
2013-08-03 10:43:00,68.0,50.0,-100.00,ENE,74,3.0,8.0,52,0.00,,,0.00,618.000000,,2013-08-03 17:43:00,
2013-08-03 10:52:00,68.0,50.0,-100.00,ENE,74,3.0,8.0,52,0.00,,,0.00,618.000000,,2013-08-03 17:52:00,
2013-08-03 11:02:00,68.0,50.0,-100.00,ENE,74,3.0,8.0,52,0.00,,,0.00,618.000000,,2013-08-03 18:02:00,
2013-08-03 11:12:00,68.0,50.0,-100.00,ENE,74,3.0,8.0,52,0.00,,,0.00,618.000000,,2013-08-03 18:12:00,
2013-08-03 11:43:00,70.0,49.0,-100.00,ENE,68,3.0,9.0,48,0.00,,,0.00,751.000000,,2013-08-03 18:43:00,
2013-08-03 11:53:00,70.0,49.0,-100.00,ENE,68,3.0,9.0,48,0.00,,,0.00,751.000000,,2013-08-03 18:53:00,
2013-08-03 12:02:00,70.0,49.0,-100.00,ENE,68,3.0,9.0,48,0.00,,,0.00,751.000000,,2013-08-03 19:02:00,
2013-08-03 12:12:00,70.0,49.0,-100.00,ENE,68,3.0,9.0,48,0.00,,,0.00,751.000000,,2013-08-03 19:12:00,
2013-08-03 12:43:00,74.0,51.0,-100.00,ENE,77,2.0,8.0,44,0.00,,,0.00,845.000000,,2013-08-03 19:43:00,
2013-08-03 12:53:00,74.0,51.0,-100.00,ENE,77,2.0,8.0,44,0.00,,,0.00,845.000000,,2013-08-03 19:53:00,
2013-08-03 13:02:00,74.0,51.0,-100.00,ENE,77,2.0,8.0,44,0.00,,,0.00,845.000000,,2013-08-03 20:02:00,
2013-08-03 13:12:00,74.0,51.0,-100.00,ENE,77,2.0,8.0,44,0.00,,,0.00,845.000000,,2013-08-03 20:12:00,
2013-08-03 13:42:00,77.0,49.0,-100.00,ESE,123,2.0,10.0,38,0.00,,,0.00,907.000000,,2013-08-03 20:42:00,
2013-08-03 13:52:00,77.0,49.0,-100.00,ESE,123,2.0,10.0,38,0.00,,,0.00,907.000000,,2013-08-03 20:52:00,
2013-08-03 14:01:00,77.0,49.0,-100.00,ESE,123,2.0,10.0,38,0.00,,,0.00,907.000000,,2013-08-03 21:01:00,
2013-08-03 14:12:00,77.0,49.0,-100.00,ESE,123,2.0,10.0,38,0.00,,,0.00,907.000000,,2013-08-03 21:12:00,
2013-08-03 14:42:00,78.0,49.0,-100.00,ENE,66,2.0,10.0,36,0.00,,,0.00,927.000000,,2013-08-03 21:42:00,
2013-08-03 14:52:00,78.0,49.0,-100.00,ENE,66,2.0,10.0,36,0.00,,,0.00,927.000000,,2013-08-03 21:52:00,
2013-08-03 15:02:00,78.0,49.0,-100.00,ENE,66,2.0,10.0,36,0.00,,,0.00,927.000000,,2013-08-03 22:02:00,
2013-08-03 15:12:00,78.0,49.0,-100.00,ENE,66,2.0,10.0,36,0.00,,,0.00,927.000000,,2013-08-03 22:12:00,
2013-08-03 15:43:00,80.0,47.0,-100.00,East,87,3.0,9.0,32,0.00,,,0.00,882.000000,,2013-08-03 22:43:00,
2013-08-03 15:52:00,80.0,47.0,-100.00,East,87,3.0,9.0,32,0.00,,,0.00,882.000000,,2013-08-03 22:52:00,
2013-08-03 16:02:00,80.0,47.0,-100.00,East,87,3.0,9.0,32,0.00,,,0.00,882.000000,,2013-08-03 23:02:00,
2013-08-03 16:12:00,80.0,47.0,-100.00,East,87,3.0,9.0,32,0.00,,,0.00,882.000000,,2013-08-03 23:12:00,
2013-08-03 16:43:00,76.0,48.0,-100.00,East,87,3.0,11.0,37,0.00,,,0.00,564.000000,,2013-08-03 23:43:00,
2013-08-03 16:52:00,76.0,48.0,-100.00,East,87,3.0,11.0,37,0.00,,,0.00,564.000000,,2013-08-03 23:52:00,
2013-08-03 17:02:00,76.0,48.0,-100.00,East,87,3.0,11.0,37,0.00,,,0.00,564.000000,,2013-08-04 00:02:00,
2013-08-03 17:12:00,76.0,48.0,-100.00,East,87,3.0,11.0,37,0.00,,,0.00,564.000000,,2013-08-04 00:12:00,
2013-08-03 17:42:00,73.0,49.0,-100.00,ENE,59,3.0,8.0,43,0.00,,,0.00,210.000000,,2013-08-04 00:42:00,
2013-08-03 17:53:00,73.0,49.0,-100.00,ENE,59,3.0,8.0,43,0.00,,,0.00,210.000000,,2013-08-04 00:53:00,
2013-08-03 18:02:00,73.0,49.0,-100.00,ENE,59,3.0,8.0,43,0.00,,,0.00,210.000000,,2013-08-04 01:02:00,
2013-08-03 18:12:00,73.0,49.0,-100.00,ENE,59,3.0,8.0,43,0.00,,,0.00,210.000000,,2013-08-04 01:12:00,
2013-08-03 18:42:00,74.0,49.0,-100.00,NE,40,5.0,10.0,41,0.00,,,0.00,326.000000,,2013-08-04 01:42:00,
2013-08-03 18:53:00,74.0,49.0,-100.00,NE,40,5.0,10.0,41,0.00,,,0.00,326.000000,,2013-08-04 01:53:00,
2013-08-03 19:02:00,74.0,49.0,-100.00,NE,40,5.0,10.0,41,0.00,,,0.00,326.000000,,2013-08-04 02:02:00,
2013-08-03 19:12:00,74.0,49.0,-100.00,NE,40,5.0,10.0,41,0.00,,,0.00,326.000000,,2013-08-04 02:12:00,
2013-08-03 19:42:00,69.0,50.0,-100.00,NNW,334,2.0,9.0,51,0.00,,,0.00,119.000000,,2013-08-04 02:42:00,
2013-08-03 19:52:00,69.0,50.0,-100.00,NNW,334,2.0,9.0,51,0.00,,,0.00,119.000000,,2013-08-04 02:52:00,
2013-08-03 20:01:00,69.0,50.0,-100.00,NNW,334,2.0,9.0,51,0.00,,,0.00,119.000000,,2013-08-04 03:01:00,
2013-08-03 20:11:00,69.0,50.0,-100.00,NNW,334,2.0,9.0,51,0.00,,,0.00,119.000000,,2013-08-04 03:11:00,
2013-08-03 20:42:00,65.0,51.0,-100.00,NNW,328,0.0,4.0,61,0.00,,,0.00,21.000000,,2013-08-04 03:42:00,
2013-08-03 20:52:00,65.0,51.0,-100.00,NNW,328,0.0,4.0,61,0.00,,,0.00,21.000000,,2013-08-04 03:52:00,
2013-08-03 21:02:00,65.0,51.0,-100.00,NNW,328,0.0,4.0,61,0.00,,,0.00,21.000000,,2013-08-04 04:02:00,
2013-08-03 21:11:00,65.0,51.0,-100.00,NNW,328,0.0,4.0,61,0.00,,,0.00,21.000000,,2013-08-04 04:11:00,
2013-08-03 21:42:00,63.0,51.0,-100.00,NW,314,1.0,3.0,65,0.00,,,0.00,2.000000,,2013-08-04 04:42:00,
2013-08-03 21:52:00,63.0,51.0,-100.00,NW,314,1.0,3.0,65,0.00,,,0.00,2.000000,,2013-08-04 04:52:00,
2013-08-03 22:02:00,63.0,51.0,-100.00,NW,314,1.0,3.0,65,0.00,,,0.00,2.000000,,2013-08-04 05:02:00,
2013-08-03 22:12:00,63.0,51.0,-100.00,NW,314,1.0,3.0,65,0.00,,,0.00,2.000000,,2013-08-04 05:12:00,
2013-08-03 22:42:00,63.0,51.0,-100.00,NW,305,0.0,3.0,64,0.00,,,0.00,0.000000,,2013-08-04 05:42:00,
2013-08-03 22:52:00,63.0,51.0,-100.00,NW,305,0.0,3.0,64,0.00,,,0.00,0.000000,,2013-08-04 05:52:00,
2013-08-03 23:01:00,63.0,51.0,-100.00,NW,305,0.0,3.0,64,0.00,,,0.00,0.000000,,2013-08-04 06:01:00,
2013-08-03 23:12:00,63.0,51.0,-100.00,NW,305,0.0,3.0,64,0.00,,,0.00,0.000000,,2013-08-04 06:12:00,
2013-08-03 23:43:00,64.0,48.0,-100.00,NNW,332,0.0,3.0,57,0.00,,,0.00,0.000000,,2013-08-04 06:43:00,
2013-08-03 23:52:00,64.0,48.0,-100.00,NNW,332,0.0,3.0,57,0.00,,,0.00,0.000000,,2013-08-04 06:52:00,